Time,TemperatureF,DewpointF,PressureIn,WindDirection,WindDirectionDegrees,WindSpeedMPH,WindSpeedGustMPH,Humidity,HourlyPrecipIn,Conditions,Clouds,dailyrainin,SoftwareType,DateUTC
2013-03-16 00:01:00,36.5,35.2,29.83,ENE,71,3.0,4.0,95,0.00,,---,0.00,VWS V14.01,2013-03-16 04:01:00,
2013-03-16 00:16:00,36.4,35.1,29.82,ENE,71,3.0,4.0,95,0.00,,---,0.00,VWS V14.01,2013-03-16 04:16:00,
2013-03-16 00:31:00,36.3,35.0,29.80,ENE,71,5.0,8.0,95,0.00,,---,0.00,VWS V14.01,2013-03-16 04:31:00,
2013-03-16 01:31:00,36.3,35.3,29.76,ENE,69,7.0,10.0,96,0.00,,---,0.00,VWS V14.01,2013-03-16 05:31:00,
2013-03-16 02:01:00,36.4,35.4,29.75,ENE,68,4.0,10.0,96,0.00,,---,0.00,VWS V14.01,2013-03-16 06:01:00,
2013-03-16 03:31:00,36.5,35.5,29.75,ENE,63,2.0,7.0,96,0.00,,---,0.00,VWS V14.01,2013-03-16 07:31:00,
2013-03-16 03:46:00,36.4,35.4,29.74,ENE,63,3.0,5.0,96,0.00,,---,0.00,VWS V14.01,2013-03-16 07:46:00,
2013-03-16 04:31:00,36.0,35.0,29.70,ENE,71,4.0,10.0,96,0.00,,---,0.00,VWS V14.01,2013-03-16 08:31:00,
2013-03-16 05:31:00,35.6,34.6,29.71,East,80,3.0,8.0,96,0.00,,---,0.00,VWS V14.01,2013-03-16 09:31:00,
2013-03-16 06:01:00,35.3,34.3,29.72,ENE,66,5.0,8.0,96,0.00,,---,0.00,VWS V14.01,2013-03-16 10:01:00,
2013-03-16 06:31:00,35.1,34.1,29.72,NE,51,6.0,9.0,96,0.00,,---,0.00,VWS V14.01,2013-03-16 10:31:00,
2013-03-16 07:31:00,34.5,33.5,29.74,ENE,68,2.0,10.0,96,0.00,,---,0.00,VWS V14.01,2013-03-16 11:31:00,
2013-03-16 08:46:00,34.1,33.1,29.76,ENE,71,5.0,9.0,96,0.00,,---,0.00,VWS V14.01,2013-03-16 12:46:00,
2013-03-16 09:16:00,34.3,33.3,29.77,ENE,60,0.0,5.0,96,0.00,,---,0.00,VWS V14.01,2013-03-16 13:16:00,
2013-03-16 09:31:00,34.3,33.3,29.78,ENE,60,0.0,4.0,96,0.00,,---,0.00,VWS V14.01,2013-03-16 13:31:00,
2013-03-16 09:46:00,34.4,33.4,29.79,ENE,59,3.0,7.0,96,0.00,,---,0.00,VWS V14.01,2013-03-16 13:46:00,
2013-03-16 10:16:00,34.2,33.2,29.81,North,355,3.0,7.0,96,0.00,,---,0.00,VWS V14.01,2013-03-16 14:16:00,
2013-03-16 11:31:00,33.1,31.8,29.86,NNE,24,7.0,9.0,95,0.00,,---,0.00,VWS V14.01,2013-03-16 15:31:00,
2013-03-16 12:01:00,32.6,31.6,29.87,North,349,4.0,8.0,96,0.00,,---,0.00,VWS V14.01,2013-03-16 16:01:00,
2013-03-16 12:16:00,32.6,31.6,29.88,NNW,346,4.0,6.0,96,0.00,,---,0.00,VWS V14.01,2013-03-16 16:16:00,
2013-03-16 13:16:00,32.3,31.0,29.92,North,355,4.0,9.0,95,0.00,,---,0.00,VWS V14.01,2013-03-16 17:16:00,
2013-03-16 13:31:00,32.2,30.9,29.93,NNW,329,7.0,9.0,95,0.00,,---,0.00,VWS V14.01,2013-03-16 17:31:00,
2013-03-16 15:01:00,32.5,29.4,29.96,NNW,348,8.0,13.0,88,0.00,,---,0.00,VWS V14.01,2013-03-16 19:01:00,
2013-03-16 16:31:00,32.0,27.7,29.98,NW,323,6.0,11.0,84,0.00,,---,0.00,VWS V14.01,2013-03-16 20:31:00,
2013-03-16 17:46:00,31.0,26.5,30.02,WNW,286,7.0,10.0,83,0.00,,---,0.00,VWS V14.01,2013-03-16 21:46:00,
2013-03-16 18:46:00,29.6,25.1,30.04,NNW,334,3.0,8.0,83,0.00,,---,0.00,VWS V14.01,2013-03-16 22:46:00,
2013-03-16 19:16:00,29.5,25.0,30.05,NW,322,1.0,9.0,83,0.00,,---,0.00,VWS V14.01,2013-03-16 23:16:00,
2013-03-16 19:31:00,29.0,24.2,30.05,NNW,344,2.0,8.0,82,0.00,,---,0.00,VWS V14.01,2013-03-16 23:31:00,
2013-03-16 19:46:00,28.8,24.0,30.06,WNW,298,5.0,8.0,82,0.00,,---,0.00,VWS V14.01,2013-03-16 23:46:00,
2013-03-16 20:46:00,28.6,23.5,30.08,NNE,32,3.0,7.0,81,0.00,,---,0.00,VWS V14.01,2013-03-17 00:46:00,
2013-03-16 21:01:00,28.7,23.6,30.08,NW,319,0.0,7.0,81,0.00,,---,0.00,VWS V14.01,2013-03-17 01:01:00,
2013-03-16 21:46:00,29.1,23.7,30.09,NNW,338,3.0,6.0,80,0.00,,---,0.00,VWS V14.01,2013-03-17 01:46:00,
2013-03-16 22:01:00,29.0,23.3,30.10,NW,321,9.0,10.0,79,0.00,,---,0.00,VWS V14.01,2013-03-17 02:01:00,
2013-03-16 22:16:00,28.5,22.2,30.10,NW,322,4.0,10.0,77,0.00,,---,0.00,VWS V14.01,2013-03-17 02:16:00,
2013-03-16 23:01:00,28.4,22.4,30.12,NNW,347,4.0,8.0,78,0.00,,---,0.00,VWS V14.01,2013-03-17 03:01:00,
2013-03-16 23:16:00,28.1,22.1,30.13,NW,325,4.0,11.0,78,0.00,,---,0.00,VWS V14.01,2013-03-17 03:16:00,
2013-03-16 23:31:00,28.0,21.7,30.13,NNW,340,4.0,8.0,77,0.00,,---,0.00,VWS V14.01,2013-03-17 03:31:00,